User: anonymous   Login
Location: Christianberg
(48.9086°N, 14.0209°E)
Time: 21:37:40
(UTC+00:00)
Language:

FENGYUN 1C DEB - Orbit

View from above orbital plane
View from above orbital plane
View from above satellite
View from above satellite

Ground track
Ground track

The orbit data is extracted from the following two-line orbital elements,

1 33674U 99025DFK 21333.45529668  .00000948  00000-0  94710-3 0  9990
2 33674  98.5642 149.7051 0229001 218.3278 140.1405 13.69199478681413
Epoch (UTC): 29 November 2021 10:55:37
Eccentricity: 0.0229001
inclination: 98.5642°
perigee height: 833 km
apogee height: 1171 km
right ascension of ascending node: 149.7051°
argument of perigee: 218.3278°
revolutions per day: 13.69199478
mean anomaly at epoch: 140.1405°
orbit number at epoch: 68141

The dashed part of the orbit path shows where the satellite is in the earth's shadow,  

DLR